Location: Aalen
(48.8330°N, 10.1000°E)
Time: 01:45:00
(UTC+02:00)

O/OREOS (USA 219) - Pass Details

Date: 09 April 2023
Orbit: 621 x 646 km, 72.0° (Epoch: 22 May)

Event Time Altitude Azimuth Distance (km) Brightness Sun altitude
Exits shadow 05:31:49 16° 258° (WSW) 1,667 ? -11.7°
Maximum altitude 05:34:36 28° 308° (NW) 1,199 ? -11.3°
Drops below altitude 10° 05:38:32 10° 8° (N) 2,026 ? -10.7°
Sets 05:41:05 0° 20° (NNE) 2,934 ? -10.3°
